Location: Mascot Post Office (historical)
(40.2645°N, 99.5462°W)
Time: 01:42:38
(UTC+00:00)

Cosmos 1743 - Pass Details

Date: 14 July 2020
Orbit: 511 x 526 km, 82.6° (Epoch: 14 August)

Event Time Altitude Azimuth Distance (km) Brightness Sun altitude
Exits shadow 09:22:42 29° 165° (SSE) 968 3.7 -18.0°
Maximum altitude 09:24:28 61° 95° (E) 589 3.0 -17.8°
Drops below altitude 10° 09:28:15 10° 15° (NNE) 1,752 6.4 -17.3°
Sets 09:30:25 0° 12° (NNE) 2,646 7.4 -17.1°
